GW0859 Weather Reports


time (UTC)temp
C
wind
direction
speed
KPH
gust
KPH
rain 1hr
cm
rain 24hr
cm
rain mn
cm
humidity
%
barometer
mb
20260510093129 9 128 0.0 0.0 0.00 0.00 0.00 99 1012.4
20260510092127 9 127 0.0 1.6 0.00 0.00 0.00 99 1012.3
20260510091125 9 132 0.0 0.0 0.00 0.00 0.00 99 1012.1
20260510090124 9 346 1.6 1.6 0.00 0.00 0.00 99 1011.9
20260510085121 9 334 0.0 0.0 0.00 0.00 0.00 99 1012.0
20260510084120 9 335 0.0 0.0 0.00 0.00 0.00 99 1011.9
20260510083119 10 328 1.6 3.2 0.00 0.00 0.00 99 1011.8
20260510082117 10 168 0.0 0.0 0.00 0.00 0.00 99 1011.8
20260510081113 10 153 0.0 0.0 0.00 0.00 0.00 99 1011.7
20260510080110 10 152 0.0 0.0 0.00 0.00 0.00 99 1012.3
20260510075110 10 151 0.0 0.0 0.00 0.00 0.00 99 1011.8
20260510074108 10 172 1.6 1.6 0.00 0.00 0.00 99 1012.1
20260510073108 10 163 0.0 0.0 0.00 0.00 0.00 99 1012.4
20260510072106 10 162 0.0 1.6 0.00 0.00 0.00 99 1012.6
20260510071106 10 141 0.0 0.0 0.00 0.00 0.00 99 1012.6
20260510070106 10 141 0.0 0.0 0.00 0.00 0.00 99 1012.8
20260510065104 10 125 0.0 0.0 0.00 0.00 0.00 99 1012.5
20260510064103 10 141 1.6 1.6 0.00 0.00 0.00 99 1012.5
20260510063103 10 227 0.0 1.6 0.00 0.00 0.00 99 1012.0
20260510062100 10 180 0.0 0.0 0.00 0.00 0.00 99 1012.3
20260510061100 10 180 0.0 0.0 0.00 0.00 0.00 99 1012.0
20260510060058 10 161 0.0 0.0 0.00 0.00 0.00 99 1012.3
20260510055058 10 114 0.0 0.0 0.00 0.00 0.00 99 1012.0
20260510054055 10 119 0.0 1.6 0.00 0.00 0.00 99 1012.5
20260510053052 10 113 0.0 1.6 0.00 0.00 0.00 99 1012.5
20260510052050 10 131 0.0 0.0 0.00 0.00 0.00 99 1012.4
20260510051048 10 83 1.6 1.6 0.00 0.00 0.00 99 1012.3
20260510050048 10 188 0.0 0.0 0.00 0.00 0.00 99 1012.4
20260510045047 10 188 0.0 0.0 0.00 0.00 0.00 99 1012.3
20260510044042 10 174 0.0 0.0 0.00 0.00 0.00 99 1012.0
20260510043039 10 186 0.0 1.6 0.00 0.00 0.00 99 1012.1
20260510042033 9 125 0.0 0.0 0.00 0.00 0.00 99 1012.1
20260510041028 9 137 0.0 0.0 0.00 0.00 0.00 99 1011.9
20260510040026 8 135 0.0 1.6 0.00 0.89 0.89 99 1012.1
20260510035022 8 137 0.0 0.0 0.00 0.89 0.89 99 1012.0
20260510034017 8 136 0.0 0.0 0.00 0.89 0.89 99 1011.9
20260510033017 8 136 0.0 0.0 0.00 0.89 0.89 99 1011.6
20260510032014 7 117 0.0 0.0 0.00 0.89 0.89 99 1011.9
20260510031011 7 252 1.6 1.6 0.00 0.89 0.89 99 1011.7
20260510030011 7 208 1.6 1.6 0.00 0.89 0.89 99 1011.8
20260510025005 7 206 0.0 0.0 0.00 0.89 0.89 99 1011.6
20260510024003 8 206 0.0 0.0 0.00 0.89 0.89 99 1011.6
20260510023003 8 206 0.0 0.0 0.00 0.89 0.89 99 1011.4
20260510022002 8 206 0.0 0.0 0.00 0.89 0.89 99 1011.6
20260510021001 8 205 0.0 0.0 0.00 0.89 0.89 99 1011.5
20260510015958 8 203 0.0 0.0 0.00 0.89 0.89 99 1011.4
20260510014955 8 202 0.0 0.0 0.00 0.89 0.89 99 1011.3
20260510013949 9 203 0.0 1.6 0.00 0.89 0.89 99 1011.5
20260510012946 9 194 0.0 0.0 0.00 0.89 0.89 99 1011.3
20260510011942 9 194 1.6 1.6 0.00 0.89 0.89 99 1011.3
20260510010939 9 194 0.0 0.0 0.00 0.89 0.89 99 1011.1
20260510005939 10 194 0.0 0.0 0.00 0.89 0.89 99 1011.0
20260510004939 10 194 0.0 0.0 0.00 0.89 0.89 99 1011.0
20260510003934 10 194 0.0 0.0 0.00 0.89 0.89 99 1011.0
20260510002929 10 194 0.0 0.0 0.00 0.89 0.89 99 1011.1
20260510001929 10 195 0.0 0.0 0.00 0.89 0.89 99 1010.8
20260510000924 11 194 0.0 0.0 0.00 0.89 0.89 99 1010.6
20260509235922 11 194 0.0 1.6 0.00 0.89 0.89 99 1010.6
20260509234921 11 194 0.0 0.0 0.00 0.89 0.89 99 1010.6
20260509233917 11 195 0.0 0.0 0.00 0.89 0.89 99 1010.4
20260509232916 11 187 0.0 0.0 0.00 0.89 0.89 99 1010.4
20260509231915 12 187 0.0 0.0 0.00 0.89 0.89 99 1010.3
20260509230910 12 168 0.0 0.0 0.00 0.89 0.89 98 1010.3
20260509225908 12 179 1.6 1.6 0.00 0.89 0.89 97 1010.4
20260509224907 12 176 0.0 0.0 0.00 0.89 0.89 97 1010.4
20260509223906 12 169 0.0 0.0 0.00 0.89 0.89 97 1010.4
20260509222905 12 175 0.0 0.0 0.00 0.89 0.89 97 1010.4
20260509221901 12 168 0.0 1.6 0.00 0.89 0.89 97 1010.5
20260509220900 12 173 1.6 1.6 0.00 0.89 0.89 97 1010.4
20260509215858 12 158 0.0 1.6 0.00 0.89 0.89 97 1010.5
20260509214857 12 191 1.6 1.6 0.00 0.89 0.89 97 1010.4
20260509213852 12 208 3.2 3.2 0.00 0.89 0.89 95 1010.5
20260509212851 12 180 1.6 1.6 0.00 0.89 0.89 96 1010.6
20260509211849 13 178 1.6 1.6 0.00 0.89 0.89 97 1010.6
20260509210848 12 190 1.6 3.2 0.00 0.89 0.89 99 1010.8
20260509205846 12 175 0.0 0.0 0.00 0.89 0.89 99 1010.9
20260509204843 12 140 3.2 3.2 0.00 0.89 0.89 99 1010.9
20260509203841 12 158 0.0 1.6 0.00 0.89 0.89 99 1011.0
20260509202841 11 175 0.0 0.0 0.00 0.89 0.89 99 1011.1
20260509201837 11 186 1.6 1.6 0.00 0.89 0.89 99 1011.2
20260509200835 11 160 3.2 3.2 0.00 0.89 0.89 99 1011.3
20260509195833 11 152 0.0 1.6 0.00 0.89 0.89 99 1011.2
20260509194833 11 181 0.0 0.0 0.00 0.89 0.89 99 1011.2
20260509193832 11 159 0.0 0.0 0.13 0.89 0.89 99 1011.2
20260509192828 11 180 0.0 0.0 0.00 0.86 0.86 99 1011.8
20260509191825 10 149 0.0 0.0 0.18 0.86 0.86 99 1011.8
20260509190823 10 173 0.0 0.0 0.30 0.81 0.81 99 1012.0
20260509185818 11 155 0.0 1.6 0.30 0.79 0.79 99 1012.1
20260509184818 11 166 0.0 0.0 0.18 0.74 0.74 99 1012.4
20260509183817 11 176 1.6 1.6 0.13 0.71 0.71 99 1012.3
20260509182814 11 179 1.6 1.6 0.30 0.69 0.69 99 1012.3
20260509181814 11 171 0.0 0.0 0.30 0.66 0.66 99 1012.3
20260509180809 11 169 0.0 0.0 0.30 0.61 0.61 99 1012.3
20260509175807 11 221 1.6 1.6 0.48 0.56 0.56 99 1012.5
20260509174806 11 172 0.0 0.0 0.30 0.48 0.48 99 1012.4
20260509173803 11 175 0.0 0.0 0.43 0.43 0.43 99 1012.4
20260509172801 11 213 1.6 1.6 0.48 0.36 0.36 99 1012.6
20260509171800 11 177 0.0 0.0 0.48 0.28 0.28 99 1012.5
20260509170758 11 154 1.6 1.6 0.30 0.20 0.20 99 1012.4
20260509165753 11 191 1.6 1.6 0.13 0.15 0.15 98 1012.6
20260509164751 12 174 0.0 1.6 0.18 0.13 0.13 97 1012.7
20260509163750 12 142 3.2 4.8 0.13 0.10 0.10 95 1012.7
20260509162745 12 221 3.2 4.8 0.00 0.08 0.08 94 1012.5
20260509161741 12 180 3.2 3.2 0.00 0.08 0.08 94 1012.8
20260509160738 12 200 1.6 3.2 0.00 0.08 0.08 93 1012.7
20260509155736 12 150 0.0 0.0 0.00 0.08 0.08 93 1012.7
20260509154735 12 177 0.0 0.0 0.00 0.08 0.08 94 1012.7
20260509153735 12 172 0.0 0.0 0.00 0.08 0.08 96 1012.9
20260509152733 12 183 0.0 1.6 0.00 0.08 0.08 98 1013.1
20260509151733 11 155 0.0 0.0 0.00 0.08 0.08 98 1012.5
20260509150733 11 167 1.6 1.6 0.00 0.08 0.08 97 1012.3
20260509145728 11 151 0.0 1.6 0.00 0.08 0.08 98 1012.6
20260509144725 11 148 0.0 0.0 0.00 0.08 0.08 97 1012.6
20260509143725 11 112 0.0 0.0 0.00 0.08 0.08 96 1012.9
20260509142723 11 210 1.6 1.6 0.00 0.08 0.08 97 1012.8
20260509141721 11 164 0.0 1.6 0.18 0.08 0.08 96 1013.0
20260509140721 11 170 0.0 0.0 0.00 0.05 0.05 97 1013.1
20260509135716 11 145 0.0 0.0 0.00 0.05 0.05 97 1012.8
20260509134716 10 145 0.0 0.0 0.13 0.05 0.05 96 1012.8
20260509133711 11 169 0.0 0.0 0.00 0.03 0.03 94 1012.3
20260509132706 11 147 1.6 1.6 0.00 0.03 0.03 94 1012.4
20260509131706 11 134 0.0 0.0 0.18 0.03 0.03 93 1012.1
20260509130705 10 161 0.0 0.0 0.00 0.00 0.00 92 1012.5
20260509125703 10 131 0.0 0.0 0.00 0.00 0.00 92 1012.4
20260509124702 11 120 0.0 0.0 0.00 0.00 0.00 91 1012.6
20260509123658 11 156 0.0 0.0 0.00 0.00 0.00 91 1012.7
20260509122656 10 146 0.0 0.0 0.00 0.00 0.00 90 1012.9
20260509121655 10 115 0.0 0.0 0.00 0.00 0.00 91 1012.9
20260509120651 10 160 0.0 0.0 0.00 0.00 0.00 92 1013.0
20260509115646 10 121 0.0 0.0 0.00 0.00 0.00 93 1012.4
20260509114642 10 167 0.0 0.0 0.00 0.00 0.00 94 1012.9
20260509113638 10 145 0.0 0.0 0.00 0.00 0.00 95 1012.7
20260509112638 10 144 0.0 0.0 0.00 0.00 0.00 95 1012.4
20260509111638 9 162 0.0 0.0 0.00 0.00 0.00 94 1012.4
20260509110637 9 152 0.0 0.0 0.00 0.00 0.00 95 1012.4
20260509105632 8 161 0.0 0.0 0.00 0.00 0.00 96 1012.3
20260509104632 8 150 1.6 1.6 0.00 0.00 0.00 96 1012.1
20260509103627 8 114 1.6 1.6 0.00 0.00 0.00 98 1012.0
20260509102627 8 169 0.0 1.6 0.00 0.00 0.00 99 1012.3
20260509101626 8 161 0.0 0.0 0.00 0.00 0.00 99 1012.1
20260509100626 8 181 0.0 0.0 0.00 0.00 0.00 99 1012.4
20260509095626 8 184 0.0 0.0 0.00 0.00 0.00 99 1012.5
20260509094625 8 184 0.0 0.0 0.00 0.00 0.00 99 1012.4